Location: Unspecified
(0.0000°N, 0.0000°E)
Time: 12:48:23
(UTC+00:00)

Envisat - Pass Details

Date: 08 December 2017
Orbit: 764 x 766 km, 98.2° (Epoch: 16 December)

Event Time Altitude Azimuth Distance (km) Brightness Sun altitude
Rises 20:00:26 0° 166° (SSE) 3,231 6.4 -29.3°
Reaches altitude 10° 20:02:45 10° 165° (SSE) 2,303 5.6 -29.8°
Enters shadow 20:04:11 19° 164° (SSE) 1,741 4.9 -30.1°
